829  
ASUS41 KLWX 022213  
RWRLWX  
 
REGIONAL WEATHER ROUNDUP  
NATIONAL WEATHER SERVICE BALTIMORE MD/WASHINGTON DC  
500 PM EST FRI DEC 02 2022  
 
NOTE: "FAIR" INDICATES FEW OR NO CLOUDS BELOW 12,000 FEET  
WITH NO SIGNIFICANT WEATHER AND/OR S TO VISIBILITY
.  
TC=TEMPERATURE CELSIUS  
 
* =NON NWS SITE. STATION DOES NOT REPORT PRECIPITATION (E.G. RAIN,  
SNOW, ETC.), THUNDER, OR FOG.
 
 
DCZ001-MDZ009-015-VAZ040>042-051-053>054-022300-  
WASHINGTON METRO  
 
CITY SKY/WX TMP DP RH WIND PRES REMARKS
 
WASHINGTON NAT MOCLDY 48 27 44 SE7 30.44S  
DULLES MOCLDY 48 22 35 SE7 30.41S  
ANDREWS AFB CLEAR 45 24 44 S7 30.41S  
FT BELVOIR PTCLDY 46 24 42 CALM 30.42S  
QUANTICO PTCLDY 50 32 50 S10 30.44S  
LEESBURG* MOCLDY 46 27 46 SE6 30.42R  
MANASSAS* MOCLDY 47 24 40 S6 30.43R  
GAITHERSBURG* MOCLDY 43 23 45 SE7 30.42F  
 

 
 
MDZ006>007-011-014-022300-  
BALTIMORE METRO  
 
CITY SKY/WX TMP DP RH WIND PRES REMARKS
 
BWI AIRPORT MOCLDY 46 33 60 SE6 30.43F  
BALT INNER HAR N/A 47 33 58 MISG 30.44F  
MARTIN STATE CLEAR 45 34 65 SE10 30.47S  
ANNAPOLIS CLEAR 47 35 63 SE9 30.45S  
FORT MEADE* PTCLDY 41 21 45 CALM 30.46F  
 

 
 
MDZ012-015-019>023-022300-  
MARYLAND EASTERN SHORE  
 
CITY SKY/WX TMP DP RH WIND PRES REMARKS
 
OCEAN CITY PTCLDY 45 33 63 CALM 30.50F  
SALISBURY PTCLDY 47 32 56 SE5 30.49R  
BAY BRIDGE AP* CLEAR 45 34 65 SE6 30.46S  
CAMBRIDGE* CLEAR 46 34 61 S6G12 30.47S  
EASTON* CLEAR 46 30 53 S9 30.50S  
 

 
 
MDZ017>025-022300-  
SOUTHERN MARYLAND  
 
CITY SKY/WX TMP DP RH WIND PRES REMARKS
 
PATUXENT RIVER PTCLDY 49 35 58 S8 30.45F  
ST INIGOES CLEAR 50 35 56 SE6 30.45F  
LEONARDTOWN* PTCLDY 46 32 57 SE5 30.47R  
 

 
 
MDZ003>005-022300-  
NORTH CENTRAL MARYLAND  
 
CITY SKY/WX TMP DP RH WIND PRES REMARKS
 
HAGERSTOWN APT CLOUDY 45 22 40 S6 30.38R  
WESTMINSTER* PTCLDY 43 30 61 MISG 30.40F  
 

 
 
MDZ501>502-022300-  
WESTERN MARYLAND  
 
CITY SKY/WX TMP DP RH WIND PRES REMARKS
 
OAKLAND* NOT AVBL  
CUMBERLAND* CLOUDY 43 19 38 NW3 30.38S  
 

 
 
VAZ025>031-022300-  
SHENANDOAH VALLEY  
 
CITY SKY/WX TMP DP RH WIND PRES REMARKS
 
WINCHESTER* PTCLDY 43 23 45 E5 30.35S  
FRONT ROYAL* MOCLDY 46 23 39 CALM 30.34F  
LURAY* CLEAR 48 21 34 CALM 30.35S  
NEW MARKET* CLEAR 48 20 33 S3 30.34S  
STAUNTON* CLEAR 45 22 39 S8 30.38S  
WAYNESBORO* CLEAR 45 21 39 S6 30.37S  
 

 
 
WVZ021-048>050-054>055-022300-  
EASTERN WEST VIRGINIA PANHANDLE  
 
CITY SKY/WX TMP DP RH WIND PRES REMARKS
 
MARTINSBURG PTCLDY 43 22 43 SE3 30.36F  
PETERSBURG* NOT AVBL  
 

 
 
VAZ036>039-050-022300-  
CENTRAL FOOTHILLS  
 
CITY SKY/WX TMP DP RH WIND PRES REMARKS
 
CHARLOTTESVILL CLEAR 46 22 38 S7 30.41R  
CULPEPER* PTCLDY 48 22 34 CALM 30.43S  
ORANGE* CLEAR 46 23 39 S5 30.43S  
GORDONSVILLE* CLEAR 48 24 38 S6 30.41R  
WARRENTON* PTCLDY 48 19 30 CALM 30.42S  
 

 
 
VAZ055>057-022300-  
NORTH AND CENTRAL PIEDMONT  
 
CITY SKY/WX TMP DP RH WIND PRES REMARKS
 
FREDERICKSBRG* PTCLDY 50 22 33 CALM 30.42S  
STAFFORD* PTCLDY 54 20 26 S3 30.43R  
 

 
 
NCZ024-NYZ072-PAZ021-071-VAZ022-071-022300-  
OTHER REGIONAL OBSERVATIONS  
 
CITY SKY/WX TMP DP RH WIND PRES REMARKS
 
NEW YORK CITY CLEAR 41 22 46 CALM 30.49S  
PHILADELPHIA PTCLDY 44 27 51 S7 30.48R  
PITTSBURGH CLOUDY 49 19 30 SE7 30.17F  
ROANOKE MOCLDY 50 22 33 SE9 30.40S  
RICHMOND MOCLDY 49 27 42 S5 30.45S  
RALEIGH MOCLDY 56 37 49 SW5 30.44S  
 

 
 
ANZ530>537-022300-  
MARINE OBSERVATIONS  
 
STATION/POSITION TIME TEMP WIND PRES
 
AIR SEA DIR/SP/G  
(UTC) (F) (DEG/KT/KT) (MB)  
THOMAS PT LIGHT 2200 47 110/ 14/ 16 1031.7S  
TOLCHESTER 2130 46 47 140/ 3/ 5 1031.4R  
GOOSES REEF 2148 46 160/ 21 1031.1F  
COVE POINT 2130 49 100/ 17/ 19 1031.5F  
BALT HARBOR 2130 47 49 170/ 6/ 10 1030.4F  
BALT KEY BRIDGE 2130 160/ 13/ 15 1030.7F  
ANNAPOLIS USNA 2130 47 52 140/ 7/ 13 1030.8F  
ANNAPOLIS CBIBS 2148 45 49 150/ 14/ 17 1030.4F  
WASH DC CHANNEL 2130 49 45 170/ 6/ 6 1030.4F  
DAHLGREN 2130 52 49 180/ 5/ 5 1030.1R  
LEWISETTA 2130 49 49 160/ 9/ 11 1031.4F  
SOLOMONS ISLAND 2130 49 51 150/ 12/ 13 1029.9F  
PINEY POINT 2130 190/ 9/ 12 N/A  
POTOMAC BUOY 2148 47 51 160/ 14/ 19 N/A  
CAMBRIDGE PIER 2130 47 46 160/ 8/ 10 1031.7S  
BISHOPS HEAD 2130 48 46 170/ 10/ 11 1031.9R  
CHESAPEAKE CITY 2130 43 44 90/ 3/ 3 1031.9R  
 

 
 
 
 
CLICK HERE TO GO TO PREVIOUS BULLETINS.

The Nexlab VA Page
The Nexlab MD Page
The Nexlab WV Page Main Text Page